Glendive, MT

3:21 AM MST on February 09, 2016 (GMT -0700)
Dawson Community

Weather History for KGDV - June, 2012

Change the Weather History Date:

Wednesday, June 20, 2012

  Actual Average Record
Temperature  
Mean Temperature 57 °F -  
Max Temperature 66 °F 73 °F 89 °F (2003)
Min Temperature 48 °F 48 °F 39 °F (2002)
Degree Days  
Heating Degree Days 8    
Growing Degree Days 7 (Base 50)    
Moisture  
Dew Point 48 °F    
Average Humidity 72    
Maximum Humidity 88    
Minimum Humidity 52    
Precipitation  
Precipitation 0.00 in - - ()
Sea Level Pressure  
Sea Level Pressure 29.97 in    
Wind  
Wind Speed 12 mph (WNW)    
Max Wind Speed 21 mph    
Max Gust Speed 29 mph    
Visibility 10 miles    
Events      
Averages and records for this station are not official NWS values.
T = Trace of Precipitation, MM = Missing Value Source: NWS Daily Summary

Daily Weather History Graph

Daily Weather History Graph

Search for Another Location

Airport or City:

Trip Planner

Search our weather history database for the weather conditions in past years. The results will help you decide how hot, cold, wet, or windy it might be!

Date:

Astronomy

Jun. 20, 2012 Rise Set
Actual Time 5:03 AM MDT 8:58 PM MDT
Civil Twilight 4:23 AM MDT 9:38 PM MDT
Nautical Twilight 3:28 AM MDT 10:33 PM MDT
Astronomical Twilight 2:04 AM MDT 11:57 PM MDT
Moon 6:10 AM MDT (6/20) 9:39 PM MDT (6/20)
Length of Visible Light 17h 15m
Length of Day
15h 55m
New Moon, 1% of the Moon is Illuminated
Jun 20
New Moon
Jun 26
First Quarter
Jul 3
Full
Jul 10
Last Quarter
Jul 18
New

Hourly Weather History & Observations

Time (MDT) Temp. Dew Point Humidity Pressure Visibility Wind Dir Wind Speed Gust Speed Precip Events Conditions
12:35 AM 51.8 °F 44.6 °F 76% 29.85 in 10.0 mi West 9.2 mph - N/A   Clear
12:55 AM 50.0 °F 44.6 °F 82% 29.86 in 10.0 mi West 8.1 mph - N/A   Clear
1:15 AM 48.2 °F 44.6 °F 87% 29.86 in 10.0 mi West 10.4 mph - N/A   Clear
1:35 AM 48.2 °F 44.6 °F 87% 29.86 in 10.0 mi West 11.5 mph - N/A   Clear
1:55 AM 48.2 °F 44.6 °F 87% 29.85 in 10.0 mi West 10.4 mph - N/A   Clear
2:15 AM 50.0 °F 44.6 °F 82% 29.86 in 10.0 mi West 10.4 mph - N/A   Clear
2:35 AM 48.2 °F 44.6 °F 87% 29.84 in 10.0 mi West 11.5 mph - N/A   Clear
2:55 AM 48.2 °F 44.6 °F 87% 29.84 in 10.0 mi WNW 10.4 mph - N/A   Clear
3:15 AM 48.2 °F 44.6 °F 87% 29.84 in 10.0 mi West 9.2 mph - N/A   Clear
3:35 AM 48.2 °F 44.6 °F 87% 29.86 in 10.0 mi West 8.1 mph - N/A   Clear
3:55 AM 48.2 °F 44.6 °F 87% 29.88 in 10.0 mi West 5.8 mph - N/A   Clear
4:15 AM 48.2 °F 44.6 °F 87% 29.88 in 10.0 mi West 8.1 mph - N/A   Clear
4:35 AM 48.2 °F 44.6 °F 87% 29.89 in 10.0 mi West 8.1 mph - N/A   Clear
4:55 AM 48.2 °F 44.6 °F 87% 29.89 in 10.0 mi WNW 5.8 mph - N/A   Partly Cloudy
5:15 AM 48.2 °F 44.6 °F 87% 29.90 in 10.0 mi WSW 9.2 mph - N/A   Mostly Cloudy
5:35 AM 51.8 °F 46.4 °F 82% 29.90 in 10.0 mi West 10.4 mph - N/A   Overcast
5:55 AM 51.8 °F 46.4 °F 82% 29.90 in 10.0 mi West 9.2 mph - N/A   Mostly Cloudy
6:15 AM 53.6 °F 46.4 °F 77% 29.90 in 10.0 mi West 16.1 mph - N/A   Mostly Cloudy
6:35 AM 53.6 °F 46.4 °F 77% 29.90 in 10.0 mi West 13.8 mph 19.6 mph N/A   Overcast
6:55 AM 53.6 °F 46.4 °F 77% 29.90 in 10.0 mi WSW 15.0 mph 18.4 mph N/A   Overcast
7:15 AM 53.6 °F 46.4 °F 77% 29.90 in 10.0 mi West 15.0 mph 21.9 mph N/A   Mostly Cloudy
7:35 AM 55.4 °F 48.2 °F 77% 29.90 in 10.0 mi West 17.3 mph - N/A   Mostly Cloudy
7:55 AM 55.4 °F 48.2 °F 77% 29.91 in 10.0 mi West 17.3 mph 23.0 mph N/A   Overcast
8:15 AM 57.2 °F 48.2 °F 72% 29.92 in 10.0 mi West 19.6 mph 26.5 mph N/A   Overcast
8:35 AM 57.2 °F 48.2 °F 72% 29.92 in 10.0 mi West 19.6 mph 26.5 mph N/A   Overcast
8:55 AM 57.2 °F 48.2 °F 72% 29.93 in 10.0 mi West 19.6 mph 24.2 mph N/A   Mostly Cloudy
9:15 AM 57.2 °F 48.2 °F 72% 29.94 in 10.0 mi West 17.3 mph 21.9 mph N/A   Mostly Cloudy
9:35 AM 59.0 °F 48.2 °F 67% 29.94 in 10.0 mi West 19.6 mph 25.3 mph N/A   Overcast
9:55 AM 57.2 °F 48.2 °F 72% 29.94 in 10.0 mi West 19.6 mph 26.5 mph N/A   Overcast
10:15 AM 57.2 °F 48.2 °F 72% 29.95 in 10.0 mi West 17.3 mph 26.5 mph N/A   Mostly Cloudy
10:35 AM 60.8 °F 50.0 °F 68% 29.95 in 10.0 mi WNW 18.4 mph 24.2 mph N/A   Overcast
10:55 AM 60.8 °F 48.2 °F 63% 29.95 in 10.0 mi West 15.0 mph 24.2 mph N/A   Mostly Cloudy
11:15 AM 64.4 °F 50.0 °F 59% 29.95 in 10.0 mi West 15.0 mph 24.2 mph N/A   Mostly Cloudy
11:35 AM 62.6 °F 48.2 °F 59% 29.95 in 10.0 mi West 20.7 mph 28.8 mph N/A   Overcast
11:55 AM 60.8 °F 50.0 °F 68% 29.96 in 10.0 mi West 13.8 mph 19.6 mph N/A   Overcast
12:15 PM 59.0 °F 51.8 °F 77% 29.97 in 7.0 mi WNW 18.4 mph 27.6 mph N/A   Mostly Cloudy
12:35 PM 64.4 °F 48.2 °F 56% 29.96 in 10.0 mi NW 20.7 mph 26.5 mph N/A   Mostly Cloudy
12:55 PM 62.6 °F 48.2 °F 59% 29.97 in 10.0 mi NW 19.6 mph 25.3 mph N/A   Overcast
1:15 PM 62.6 °F 50.0 °F 63% 29.97 in 10.0 mi WNW 16.1 mph - N/A   Overcast
1:35 PM 66.2 °F 48.2 °F 52% 29.98 in 10.0 mi NW 20.7 mph 27.6 mph N/A   Mostly Cloudy
1:55 PM 62.6 °F 48.2 °F 59% 29.98 in 10.0 mi NW 17.3 mph 27.6 mph N/A   Overcast
2:35 PM 64.4 °F 51.8 °F 64% 29.99 in 10.0 mi NW 15.0 mph 26.5 mph N/A   Overcast
2:55 PM 62.6 °F 51.8 °F 68% 29.99 in 10.0 mi NNW 13.8 mph 20.7 mph N/A   Overcast
3:15 PM 62.6 °F 48.2 °F 59% 30.00 in 10.0 mi NW 17.3 mph 21.9 mph N/A   Mostly Cloudy
3:35 PM 60.8 °F 48.2 °F 63% 30.01 in 7.0 mi NW 16.1 mph 21.9 mph N/A   Overcast
3:55 PM 62.6 °F 51.8 °F 68% 30.01 in 10.0 mi NNW 19.6 mph 24.2 mph N/A   Mostly Cloudy
4:15 PM 62.6 °F 50.0 °F 63% 30.02 in 10.0 mi NW 13.8 mph 23.0 mph N/A   Overcast
4:35 PM 66.2 °F 50.0 °F 56% 30.02 in 10.0 mi NW 18.4 mph 25.3 mph N/A   Mostly Cloudy
4:55 PM 62.6 °F 50.0 °F 63% 30.03 in 10.0 mi NW 15.0 mph 21.9 mph N/A   Overcast
5:15 PM 62.6 °F 48.2 °F 59% 30.03 in 10.0 mi NW 15.0 mph - N/A   Overcast
5:35 PM 62.6 °F 48.2 °F 59% 30.04 in 10.0 mi NW 13.8 mph - N/A   Overcast
5:55 PM 62.6 °F 48.2 °F 59% 30.04 in 10.0 mi WNW 16.1 mph 19.6 mph N/A   Overcast
6:15 PM 62.6 °F 48.2 °F 59% 30.05 in 10.0 mi NW 11.5 mph 16.1 mph N/A   Overcast
6:35 PM 62.6 °F 50.0 °F 63% 30.05 in 10.0 mi NW 11.5 mph - N/A   Overcast
6:55 PM 62.6 °F 48.2 °F 59% 30.05 in 10.0 mi WNW 11.5 mph - N/A   Mostly Cloudy
7:15 PM 62.6 °F 48.2 °F 59% 30.06 in 10.0 mi WNW 9.2 mph - N/A   Mostly Cloudy
7:35 PM 62.6 °F 50.0 °F 63% 30.07 in 10.0 mi NW 8.1 mph - N/A   Overcast
7:55 PM 62.6 °F 51.8 °F 68% 30.07 in 10.0 mi West 10.4 mph - N/A   Overcast
8:15 PM 62.6 °F 50.0 °F 63% 30.07 in 10.0 mi WNW 6.9 mph - N/A   Overcast
8:35 PM 60.8 °F 48.2 °F 63% 30.08 in 10.0 mi WNW 8.1 mph - N/A   Scattered Clouds
8:55 PM 59.0 °F 48.2 °F 67% 30.08 in 10.0 mi West 8.1 mph - N/A   Clear
9:15 PM 55.4 °F 48.2 °F 77% 30.09 in 10.0 mi WNW 5.8 mph - N/A   Clear
9:35 PM 55.4 °F 48.2 °F 77% 30.10 in 10.0 mi West 9.2 mph - N/A   Clear
9:55 PM 53.6 °F 48.2 °F 82% 30.11 in 10.0 mi West 6.9 mph - N/A   Clear
10:15 PM 51.8 °F 48.2 °F 88% 30.11 in 10.0 mi West 5.8 mph - N/A   Clear
10:55 PM 51.8 °F 46.4 °F 82% 30.11 in 10.0 mi WNW 4.6 mph - N/A   Clear
11:15 PM 51.8 °F 46.4 °F 82% 30.12 in 10.0 mi West 9.2 mph - N/A   Clear
11:35 PM 50.0 °F 46.4 °F 87% 30.11 in 10.0 mi West 6.9 mph - N/A   Clear
11:55 PM 50.0 °F 46.4 °F 87% 30.12 in 10.0 mi West 9.2 mph - N/A   Clear